Vertical_Velocity
-4 -4 1 5 -11 4 23 7 9 -3 -1 9 13 -1 -2 -1 2 -1 -1 -1 2 -1 -1 -3 -1 -6 -2 -1 -0 -4 -5 5 -3 -12 -1 10 5 -1 12 5 -4 -2 0 -56
-3 -3 -0 -4 2 -8 14 -7 0 13 3 4 8 -8 -2 -1 -1 -1 -1 -1 1 1 -3 -4 0 -1 4 -2 1 1 -1 0 -1 -4 4 10 -9 -4 5 3 8 -12 5 -7
-0 0 0 -4 -7 -14 9 15 -2 38 32 11 -5 -4 -2 -1 0 -0 -0 -0 -0 -0 -0 -1 0 -5 3 -1 1 1 11 0 -8 -11 -11 3 1 -5 2 6 8 -17 -16 -19
0 1 -2 5 6 1 4 13 -4 -7 -10 3 6 -6 -0 -5 -4 -4 -1 -2 -3 2 1 -2 -7 -8 5 7 2 -1 4 -7 9 -5 8 19 5 -0 -3 -5 -6 -7 4 -10
-2 2 -7 -6 -4 7 -4 1 21 -4 4 -5 2 -2 -3 -0 -1 2 -4 -5 2 0 3 -7 2 2 6 4 1 6 -1 -20 6 -10 5 14 7 13 -1 2 2 -2 9 -39
-1 -3 -4 -5 1 11 5 2 21 12 -7 -2 -3 -8 3 2 3 2 -1 -1 2 -4 -4 3 0 1 6 -3 2 3 8 6 7 -21 3 1 1 -11 -1 -0 -0 16 -24 -22
0 9 -3 -1 -3 -1 10 11 3 2 -4 -4 -11 -3 -3 3 2 -1 2 0 4 -4 3 0 -6 -1 -7 3 -7 4 -4 11 10 -13 1 1 -5 13 1 -3 -1 -6 -9 -20
3 -3 7 3 2 1 3 0 -6 11 -1 4 4 -5 -7 3 -2 -3 -5 -3 -1 -1 3 3 -0 -1 -3 -7 2 5 7 16 -2 4 3 -5 1 -1 0 -5 -11 -0 -7 -4
-10 -11 -4 -2 4 4 1 5 8 10 -1 -9 2 -4 -1 -2 -0 3 -6 -2 2 2 7 8 1 -4 1 -1 -1 -1 -1 5 12 1 3 1 1 3 -2 -3 -1 7 -6 -0
1 -1 -2 -2 2 1 -0 6 -1 8 -0 1 -1 -5 -5 -0 -1 -1 4 -1 -0 2 7 6 -1 -5 0 -2 -0 -3 0 -4 4 1 -1 2 -0 -2 -1 -4 0 -2 4 6
5 -2 -1 1 2 -2 3 2 0 1 2 -0 -1 -2 1 -1 3 1 4 1 -0 5 6 2 -0 -8 -4 -3 1 -3 2 -3 -3 1 1 -2 -1 -3 -2 1 2 0 -1 -1
-1 2 4 3 1 0 -1 4 2 -2 -1 -3 -0 -3 0 -3 1 4 -4 1 3 -1 4 6 -1 -2 -2 4 -1 2 -2 -3 0 -0 2 3 1 1 2 5 -1 -1 -1 -1
-7 -1 0 1 9 4 -2 6 1 0 4 6 -2 1 -0 -0 0 0 -3 1 1 -1 5 23 4 -3 -4 -3 -4 6 1 4 -2 0 0 1 -1 -2 1 3 3 0 -3 -2
-6 -4 -0 -2 -1 -3 -2 4 7 3 -4 0 0 1 -2 -1 0 2 6 6 4 1 6 11 17 -5 -1 1 -3 -0 1 1 3 3 -1 -3 2 -1 1 -1 1 0 2 -1
-5 -6 -3 -2 -0 3 5 1 6 2 -7 -0 -0 -3 -2 -1 0 1 2 0 4 2 4 1 -7 -0 2 -2 -1 -3 2 -1 -1 2 1 2 1 2 2 1 1 -2 -1 3
-4 -5 -7 -2 -1 2 0 10 9 2 -5 -4 1 -0 -1 0 1 1 -1 1 0 1 -0 -2 -3 -6 2 -0 -2 -3 -0 -2 1 1 4 0 -1 1 -0 0 0 -0 1 0
-4 -3 -2 -5 -2 -3 -0 0 -5 1 0 -6 -2 -2 0 -1 -0 0 0 2 1 2 4 2 0 -3 4 -6 -9 5 -3 -0 -0 -1 -2 -1 1 0 3 1 -0 0 -0 -0
-1 -5 -2 -4 -2 1 7 3 3 -0 5 -0 -3 -3 -2 0 -0 -1 -1 1 1 3 2 -2 -2 -0 3 -14 -1 -1 -0 2 4 1 1 0 -1 -0 -0 -1 2 2 -3 -6
-0 -4 1 -1 -0 -2 7 4 -3 3 2 -1 -4 -4 1 0 2 -1 -2 1 3 3 -1 -2 2 -3 -13 -1 1 0 1 -1 2 1 4 -9 2 1 0 0 -1 -4 1 0
1 -1 1 2 -9 8 12 7 -0 11 -6 -3 -1 -1 -1 1 1 1 -5 -0 3 2 1 1 -2 -22 5 1 -0 1 2 2 -1 -0 1 -10 5 -12 -5 3 -1 -0 1 -0
-0 -7 -2 -8 2 16 12 6 2 7 -1 -5 -7 -1 4 2 1 -0 -3 -1 -1 -0 1 -2 -1 -9 3 -3 -2 0 1 1 -2 -4 -5 -4 7 9 3 -1 -2 -1 0 2
-1 -3 -2 2 8 6 9 3 -2 -3 -1 1 -0 4 2 1 2 1 -1 -1 1 -1 -1 -0 -3 1 2 0 -1 -1 0 0 1 1 2 1 -2 -2 1 0 1 1 1 1
-3 -3 -1 3 14 14 6 1 -2 -0 -5 -2 -1 -2 -1 1 1 -1 -2 -1 -1 -1 0 -3 1 2 0 3 3 3 3 2 2 2 3 2 3 -1 1 2 1 3 3 -2
-5 -2 1 -5 1 11 6 4 2 1 -2 2 -0 3 -0 0 1 1 -1 -1 -0 1 -2 -2 0 -0 0 -1 -0 1 1 2 1 1 1 3 2 1 -1 -1 3 3 1 -1
-6 -5 -3 5 3 0 1 4 -2 -7 -1 4 3 2 3 0 0 0 -2 -2 -1 -2 -2 -2 -1 -0 -1 0 2 1 2 2 2 2 2 2 2 2 3 1 1 -1 -2 0
-7 -3 -1 2 0 -3 -3 -5 -2 5 6 7 8 3 3 -2 -3 -1 -3 -1 -5 1 2 3 1 0 -1 -2 -1 0 -0 -0 -0 0 1 3 2 2 1 -0 0 0 -0 -0
-1 -4 -4 -2 0 3 1 0 1 0 0 8 13 -2 -2 8 -1 -4 -7 -17 -5 1 3 2 1 1 -3 -3 -2 -1 0 1 1 1 1 2 1 1 1 2 0 -1 0 1
Height
2940 2935 2932 2931 2929 2922 2923 2923 2927 2933 2937 2944 2950 2954 2961 2968 2974 2978 2981 2984 2986 2987 2990 2992 2994 2992 2993 2994 2995 2994 2994 2995 2989 2984 2986 2987 2987 2984 2984 2985 2981 2980 2978 2963
2937 2932 2929 2929 2929 2926 2925 2925 2927 2931 2938 2943 2948 2955 2961 2967 2972 2976 2980 2982 2983 2985 2987 2991 2989 2989 2991 2990 2991 2992 2991 2989 2987 2979 2978 2977 2973 2971 2973 2976 2977 2970 2971 2959
2935 2930 2928 2928 2929 2923 2923 2926 2931 2936 2940 2942 2949 2954 2960 2966 2971 2975 2978 2980 2981 2983 2985 2986 2986 2986 2988 2988 2989 2989 2988 2983 2979 2973 2967 2966 2962 2962 2963 2967 2966 2961 2952 2960
2933 2928 2927 2926 2926 2923 2926 2928 2931 2933 2936 2943 2949 2955 2961 2966 2969 2974 2975 2976 2979 2981 2982 2983 2982 2985 2985 2985 2985 2983 2982 2973 2969 2960 2953 2954 2951 2951 2954 2955 2957 2958 2952 2958
2933 2928 2927 2925 2922 2922 2927 2930 2931 2934 2939 2944 2951 2957 2960 2964 2969 2971 2973 2974 2977 2978 2978 2980 2981 2980 2981 2982 2981 2979 2976 2967 2963 2950 2947 2939 2938 2939 2943 2944 2949 2948 2955 2949
2932 2929 2928 2928 2925 2927 2930 2931 2930 2936 2940 2945 2951 2953 2959 2964 2967 2970 2972 2974 2974 2975 2976 2977 2977 2978 2977 2978 2977 2976 2972 2966 2961 2947 2943 2936 2932 2931 2934 2940 2939 2945 2951 2944
2931 2929 2927 2926 2927 2928 2929 2928 2932 2936 2941 2944 2948 2954 2959 2963 2965 2968 2970 2971 2972 2974 2974 2973 2973 2973 2973 2974 2972 2972 2968 2965 2961 2950 2943 2937 2934 2927 2929 2933 2934 2939 2941 2943
2929 2925 2922 2923 2922 2924 2927 2931 2935 2938 2940 2945 2949 2954 2958 2961 2963 2964 2968 2969 2971 2972 2972 2971 2971 2971 2970 2967 2966 2965 2966 2965 2961 2954 2947 2943 2937 2931 2932 2934 2932 2933 2937 2942
2929 2926 2922 2922 2922 2924 2929 2933 2936 2936 2940 2944 2948 2952 2955 2959 2961 2962 2963 2965 2967 2969 2969 2969 2969 2968 2967 2965 2963 2961 2961 2963 2964 2957 2954 2948 2944 2939 2936 2936 2936 2935 2937 2943
2928 2925 2923 2923 2924 2924 2928 2932 2936 2938 2941 2943 2948 2951 2954 2957 2958 2959 2959 2961 2962 2964 2965 2965 2966 2966 2965 2964 2962 2961 2960 2959 2959 2959 2957 2950 2947 2944 2942 2942 2949 2945 2947 2949
2925 2923 2921 2920 2921 2923 2927 2932 2935 2939 2941 2944 2948 2950 2952 2954 2956 2956 2958 2960 2959 2960 2960 2962 2962 2964 2964 2962 2961 2960 2959 2959 2957 2957 2955 2953 2950 2948 2948 2948 2945 2946 2949 2952
2923 2920 2919 2918 2920 2922 2926 2930 2934 2937 2941 2945 2947 2949 2951 2952 2953 2953 2954 2956 2956 2957 2958 2957 2959 2960 2960 2960 2958 2957 2959 2957 2957 2956 2955 2954 2953 2952 2950 2950 2947 2948 2951 2953
2920 2917 2915 2915 2917 2920 2924 2929 2932 2936 2938 2943 2945 2946 2948 2949 2950 2951 2952 2952 2953 2953 2954 2953 2955 2958 2959 2957 2955 2955 2955 2955 2954 2955 2953 2952 2953 2953 2953 2952 2950 2950 2952 2955
2917 2914 2912 2913 2915 2917 2922 2927 2932 2936 2939 2941 2944 2943 2945 2946 2946 2947 2948 2948 2947 2948 2949 2949 2949 2953 2954 2954 2955 2954 2954 2953 2953 2953 2952 2951 2952 2953 2954 2954 2954 2954 2955 2957
2913 2911 2909 2910 2912 2916 2921 2926 2932 2935 2940 2939 2941 2941 2942 2942 2943 2943 2943 2943 2943 2943 2945 2945 2947 2949 2951 2951 2951 2948 2952 2952 2953 2952 2952 2952 2952 2953 2954 2955 2956 2958 2959 2960
2907 2905 2905 2906 2909 2915 2920 2926 2929 2931 2934 2938 2939 2940 2940 2940 2939 2940 2941 2940 2939 2940 2941 2943 2942 2944 2949 2948 2944 2945 2948 2949 2950 2950 2950 2950 2951 2952 2954 2956 2957 2959 2960 2961
2903 2900 2900 2903 2906 2912 2918 2924 2926 2929 2934 2937 2939 2937 2937 2937 2936 2937 2938 2937 2937 2938 2940 2940 2940 2942 2944 2940 2937 2942 2944 2945 2946 2948 2949 2950 2950 2952 2954 2956 2958 2960 2961 2962
2900 2897 2896 2900 2904 2912 2920 2922 2926 2930 2934 2936 2938 2937 2936 2935 2935 2936 2937 2936 2935 2936 2937 2938 2938 2938 2938 2933 2934 2936 2937 2940 2943 2945 2946 2948 2949 2951 2953 2955 2957 2959 2960 2963
2896 2894 2894 2898 2905 2912 2918 2923 2925 2929 2935 2934 2934 2935 2935 2934 2934 2935 2936 2935 2935 2935 2934 2935 2936 2933 2930 2930 2932 2931 2930 2932 2938 2941 2944 2945 2948 2950 2952 2954 2956 2957 2959 2962
2895 2894 2895 2900 2905 2913 2917 2923 2925 2928 2929 2930 2929 2933 2934 2936 2934 2935 2937 2936 2935 2934 2934 2932 2929 2924 2927 2928 2929 2929 2929 2929 2934 2937 2940 2943 2946 2948 2951 2953 2955 2958 2960 2962
2897 2897 2897 2899 2906 2911 2915 2918 2922 2924 2925 2926 2927 2929 2932 2934 2935 2935 2937 2935 2934 2933 2932 2930 2925 2918 2919 2923 2926 2928 2930 2932 2934 2936 2938 2942 2945 2947 2949 2951 2954 2956 2959 2962
2898 2898 2899 2903 2908 2910 2912 2915 2918 2919 2922 2921 2922 2926 2930 2933 2933 2934 2935 2935 2934 2931 2930 2928 2920 2918 2918 2919 2922 2926 2928 2931 2933 2936 2938 2941 2943 2945 2948 2951 2953 2956 2958 2961
2902 2903 2905 2905 2905 2907 2908 2909 2913 2916 2918 2921 2923 2926 2928 2930 2933 2934 2934 2932 2931 2930 2927 2922 2918 2917 2917 2919 2921 2923 2926 2929 2931 2934 2937 2939 2941 2944 2947 2950 2952 2955 2957 2959
2906 2906 2906 2907 2907 2907 2908 2910 2912 2915 2919 2921 2922 2924 2926 2928 2930 2932 2931 2930 2928 2925 2922 2918 2918 2917 2917 2918 2919 2920 2923 2926 2928 2932 2934 2937 2939 2942 2945 2948 2952 2954 2956 2958
2908 2908 2906 2904 2905 2906 2907 2908 2911 2914 2917 2919 2921 2923 2925 2926 2928 2927 2927 2926 2922 2920 2917 2918 2918 2917 2916 2917 2917 2919 2920 2922 2924 2928 2931 2935 2938 2941 2944 2946 2950 2952 2955 2957
2906 2907 2905 2905 2906 2906 2907 2909 2910 2911 2913 2915 2919 2920 2921 2922 2923 2921 2920 2919 2917 2917 2916 2917 2917 2917 2916 2916 2916 2916 2917 2919 2921 2925 2928 2933 2936 2939 2943 2945 2948 2951 2953 2956
2903 2903 2904 2903 2904 2904 2905 2905 2906 2907 2909 2912 2914 2913 2915 2915 2913 2912 2912 2911 2915 2915 2915 2915 2915 2915 2915 2915 2915 2914 2915 2916 2919 2922 2926 2930 2934 2937 2940 2944 2946 2949 2952 2955